Meteo orario Abakany

Oggi, 6 Marzo, Sabato

Tempo Temperatura Precipitazioni Vento Pressione Umidità
00:00 -7°C° 0 mm 1 m/s 749 mm Hg 74%
01:00 -7°C° 0 mm 1 m/s 749 mm Hg 75%
02:00 -9°C° 0 mm 2 m/s 750 mm Hg 79%
03:00 -9°C° 0 mm 2 m/s 750 mm Hg 81%
04:00 -8°C° 0 mm 1 m/s 749 mm Hg 82%
05:00 -8°C° 0 mm 1 m/s 749 mm Hg 84%
06:00 -9°C° 0 mm 2 m/s 750 mm Hg 82%
07:00 -8°C° 0 mm 2 m/s 750 mm Hg 80%
08:00 -8°C° 0 mm 2 m/s 750 mm Hg 78%
09:00 -6°C° 0 mm 2 m/s 750 mm Hg 73%
10:00 -6°C° 0 mm 3 m/s 750 mm Hg 68%
11:00 -5°C° 0 mm 3 m/s 750 mm Hg 63%
12:00 -4°C° 0 mm 4 m/s 749 mm Hg 59%
13:00 -4°C° 0 mm 4 m/s 748 mm Hg 55%
14:00 -3°C° 0 mm 4 m/s 748 mm Hg 50%
15:00 -4°C° 0 mm 5 m/s 747 mm Hg 52%
16:00 -5°C° 0 mm 5 m/s 746 mm Hg 54%
17:00 -5°C° 0 mm 5 m/s 745 mm Hg 56%
18:00 -5°C° 0.2 mm 5 m/s 744 mm Hg 65%
19:00 -5°C° 0.2 mm 6 m/s 743 mm Hg 74%
20:00 -6°C° 0.2 mm 7 m/s 742 mm Hg 83%
21:00 -4°C° 0.1 mm 7 m/s 741 mm Hg 81%
22:00 -4°C° 0.1 mm 7 m/s 739 mm Hg 78%
23:00 -4°C° 0.1 mm 7 m/s 738 mm Hg 76%

Domani, 7 Marzo, Domenica

Tempo Temperatura Precipitazioni Vento Pressione Umidità
00:00 -4°C° 0.2 mm 7 m/s 737 mm Hg 80%
01:00 -4°C° 0.2 mm 7 m/s 736 mm Hg 85%
02:00 -3°C° 0.2 mm 7 m/s 735 mm Hg 89%
03:00 -3°C° 0.7 mm 7 m/s 734 mm Hg 91%
04:00 -3°C° 0.7 mm 7 m/s 733 mm Hg 93%
05:00 -3°C° 0.7 mm 7 m/s 732 mm Hg 96%
06:00 -6°C° 0.7 mm 7 m/s 732 mm Hg 84%
07:00 -7°C° 0.7 mm 7 m/s 732 mm Hg 72%
08:00 -9°C° 0.7 mm 6 m/s 733 mm Hg 60%
09:00 -8°C° 0 mm 6 m/s 733 mm Hg 60%
10:00 -8°C° 0 mm 6 m/s 733 mm Hg 60%
11:00 -7°C° 0 mm 7 m/s 733 mm Hg 60%
12:00 -7°C° 0.2 mm 7 m/s 733 mm Hg 61%
13:00 -7°C° 0.2 mm 7 m/s 733 mm Hg 63%
14:00 -7°C° 0.2 mm 7 m/s 733 mm Hg 65%
15:00 -7°C° 0.6 mm 7 m/s 732 mm Hg 67%
16:00 -7°C° 0.6 mm 7 m/s 732 mm Hg 70%
17:00 -7°C° 0.6 mm 7 m/s 732 mm Hg 73%
18:00 -9°C° 0.3 mm 7 m/s 732 mm Hg 74%
19:00 -11°C° 0.3 mm 8 m/s 733 mm Hg 75%
20:00 -12°C° 0.3 mm 9 m/s 734 mm Hg 75%
21:00 -13°C° 0 mm 8 m/s 735 mm Hg 77%
22:00 -13°C° 0 mm 7 m/s 736 mm Hg 79%
23:00 -12°C° 0 mm 5 m/s 737 mm Hg 80%

Dopodomani, 8 Marzo, Lunedi

Tempo Temperatura Precipitazioni Vento Pressione Umidità
00:00 -12°C° 0 mm 5 m/s 738 mm Hg 82%
01:00 -12°C° 0 mm 4 m/s 738 mm Hg 83%
02:00 -12°C° 0 mm 3 m/s 739 mm Hg 85%
03:00 -12°C° 0 mm 3 m/s 739 mm Hg 86%
04:00 -12°C° 0 mm 3 m/s 740 mm Hg 87%
05:00 -12°C° 0 mm 3 m/s 740 mm Hg 88%
06:00 -12°C° 0 mm 3 m/s 740 mm Hg 88%
07:00 -11°C° 0 mm 4 m/s 741 mm Hg 87%
08:00 -11°C° 0 mm 4 m/s 741 mm Hg 87%
09:00 -11°C° 0 mm 4 m/s 742 mm Hg 84%
10:00 -10°C° 0 mm 4 m/s 742 mm Hg 81%
11:00 -10°C° 0 mm 4 m/s 743 mm Hg 79%
12:00 -10°C° 0 mm 4 m/s 743 mm Hg 77%
13:00 -10°C° 0 mm 4 m/s 744 mm Hg 76%
14:00 -9°C° 0 mm 4 m/s 744 mm Hg 74%
15:00 -9°C° 0 mm 3 m/s 745 mm Hg 76%
16:00 -9°C° 0 mm 3 m/s 745 mm Hg 78%
17:00 -9°C° 0 mm 3 m/s 745 mm Hg 80%
18:00 -10°C° 0 mm 3 m/s 746 mm Hg 82%
19:00 -10°C° 0 mm 3 m/s 746 mm Hg 84%
20:00 -12°C° 0 mm 3 m/s 747 mm Hg 86%
21:00 -12°C° 0 mm 3 m/s 747 mm Hg 87%
22:00 -12°C° 0 mm 2 m/s 748 mm Hg 89%
23:00 -13°C° 0 mm 2 m/s 748 mm Hg 91%

9 Marzo, Martedi

Tempo Temperatura Precipitazioni Vento Pressione Umidità
00:00 -14°C° 0 mm 2 m/s 748 mm Hg 91%
01:00 -14°C° 0 mm 2 m/s 749 mm Hg 92%
02:00 -15°C° 0 mm 2 m/s 749 mm Hg 92%
03:00 -15°C° 0 mm 2 m/s 749 mm Hg 93%
04:00 -14°C° 0 mm 1 m/s 749 mm Hg 94%
05:00 -14°C° 0 mm 1 m/s 750 mm Hg 95%
06:00 -14°C° 0 mm 1 m/s 750 mm Hg 92%
07:00 -13°C° 0 mm 1 m/s 750 mm Hg 90%
08:00 -13°C° 0 mm 1 m/s 751 mm Hg 88%
09:00 -11°C° 0 mm 1 m/s 751 mm Hg 80%
10:00 -9°C° 0 mm 1 m/s 751 mm Hg 73%
11:00 -7°C° 0 mm 1 m/s 751 mm Hg 66%
12:00 -8°C° 0 mm 2 m/s 750 mm Hg 70%
13:00 -7°C° 0 mm 2 m/s 750 mm Hg 74%
14:00 -7°C° 0 mm 3 m/s 750 mm Hg 78%
15:00 -7°C° 0.1 mm 3 m/s 749 mm Hg 77%
16:00 -7°C° 0.1 mm 3 m/s 749 mm Hg 75%
17:00 -6°C° 0.1 mm 3 m/s 748 mm Hg 73%
18:00 -6°C° 0.1 mm 3 m/s 748 mm Hg 77%
19:00 -7°C° 0.1 mm 4 m/s 748 mm Hg 81%
20:00 -7°C° 0.1 mm 4 m/s 748 mm Hg 85%
21:00 -7°C° 0.3 mm 4 m/s 748 mm Hg 87%
22:00 -7°C° 0.3 mm 4 m/s 748 mm Hg 89%
23:00 -5°C° 0.3 mm 4 m/s 748 mm Hg 92%

10 Marzo, Mercoledi

Tempo Temperatura Precipitazioni Vento Pressione Umidità
00:00 -7°C° 0.5 mm 4 m/s 748 mm Hg 91%
01:00 -7°C° 0.5 mm 4 m/s 748 mm Hg 91%
02:00 -7°C° 0.5 mm 4 m/s 748 mm Hg 91%
03:00 -8°C° 0.7 mm 4 m/s 748 mm Hg 92%
04:00 -7°C° 0.7 mm 3 m/s 748 mm Hg 93%
05:00 -8°C° 0.7 mm 3 m/s 749 mm Hg 94%
06:00 -9°C° 0.5 mm 3 m/s 749 mm Hg 94%
07:00 -10°C° 0.5 mm 3 m/s 749 mm Hg 93%
08:00 -10°C° 0.5 mm 3 m/s 749 mm Hg 93%
09:00 -10°C° 0.2 mm 3 m/s 750 mm Hg 91%
10:00 -9°C° 0.2 mm 3 m/s 750 mm Hg 90%
11:00 -10°C° 0.2 mm 4 m/s 750 mm Hg 88%
12:00 -10°C° 0.1 mm 4 m/s 750 mm Hg 88%
13:00 -9°C° 0.1 mm 4 m/s 750 mm Hg 89%
14:00 -9°C° 0.1 mm 4 m/s 750 mm Hg 89%
15:00 -9°C° 0.1 mm 4 m/s 750 mm Hg 90%
16:00 -10°C° 0.1 mm 4 m/s 750 mm Hg 91%
17:00 -10°C° 0.1 mm 4 m/s 749 mm Hg 92%
18:00 -10°C° 0.2 mm 4 m/s 749 mm Hg 92%
19:00 -10°C° 0.2 mm 4 m/s 749 mm Hg 92%
20:00 -10°C° 0.2 mm 4 m/s 749 mm Hg 92%
21:00 -10°C° 0.2 mm 4 m/s 749 mm Hg 93%
22:00 -10°C° 0.2 mm 4 m/s 749 mm Hg 93%
23:00 -10°C° 0.2 mm 4 m/s 749 mm Hg 93%

11 Marzo, Giovedi

Tempo Temperatura Precipitazioni Vento Pressione Umidità
00:00 -8°C° 0.2 mm 3 m/s 749 mm Hg 93%
01:00 -8°C° 0.2 mm 3 m/s 749 mm Hg 93%
02:00 -8°C° 0.2 mm 3 m/s 748 mm Hg 93%
03:00 -8°C° 0 mm 3 m/s 748 mm Hg 93%
04:00 -8°C° 0 mm 3 m/s 748 mm Hg 93%
05:00 -9°C° 0 mm 3 m/s 747 mm Hg 93%
06:00 -8°C° 0 mm 3 m/s 747 mm Hg 91%
07:00 -8°C° 0 mm 3 m/s 747 mm Hg 90%
08:00 -9°C° 0 mm 4 m/s 747 mm Hg 89%
09:00 -7°C° 0 mm 4 m/s 746 mm Hg 84%
10:00 -6°C° 0 mm 5 m/s 745 mm Hg 78%
11:00 -4°C° 0 mm 5 m/s 745 mm Hg 73%
12:00 -4°C° 0 mm 5 m/s 744 mm Hg 71%
13:00 -3°C° 0 mm 6 m/s 743 mm Hg 70%
14:00 -3°C° 0 mm 6 m/s 742 mm Hg 68%
15:00 -3°C° 0 mm 6 m/s 741 mm Hg 68%
16:00 -3°C° 0 mm 6 m/s 740 mm Hg 68%
17:00 -3°C° 0 mm 7 m/s 739 mm Hg 68%
18:00 -4°C° 0.2 mm 7 m/s 738 mm Hg 76%
19:00 -5°C° 0.2 mm 8 m/s 736 mm Hg 84%
20:00 -5°C° 0.2 mm 9 m/s 735 mm Hg 92%
21:00 -5°C° 0.8 mm 8 m/s 733 mm Hg 93%
22:00 -4°C° 0.8 mm 8 m/s 732 mm Hg 94%
23:00 -4°C° 0.8 mm 8 m/s 731 mm Hg 95%
Mostrare altro

Abbiamo bisogno del tuo consenso

Meteoprog e i nostri fornitori di servizi possono memorizzare e accedere a dati personali come cookie, identificatori di dispositivi o altre tecnologie simili sul tuo dispositivo e possono elaborare tali dati per personalizzare i contenuti e gli annunci, nonché fornire funzionalità dei social media e analizzarne il traffico.

  • Archiviare e/o accedere alle informazioni sul tuo dispositivo

    Cookie, identificatori di dispositivi o altre informazioni possono essere memorizzati o resi accessibili sul tuo dispositivo per le finalità sopra indicate.

  • Annunci e contenuti personalizzati, misurazione di annunci e contenuti, approfondimenti sul pubblico e sviluppo di prodotti

    Gli annunci e i contenuti possono essere personalizzati in base a un profilo. È possibile aggiungere più dati per personalizzare meglio annunci e contenuti. È possibile misurare il rendimento degli annunci e dei contenuti. È possibile ricavare informazioni sul pubblico che ha visto gli annunci e i contenuti. Tali dati possono essere utilizzati per sviluppare o migliorare l'esperienza, i sistemi e il software dell'utente.

Cliccando su “Accetto”, acconsenti all'uso di cookie, identificatori di dispositivo, web beacon o altre tecnologie simili. Puoi modificare le impostazioni nel browser del tuo dispositivo.

Per determinati scopi, è possibile fare affidamento su interessi legali, piuttosto che sul consenso. Puoi approfondire questo argomento consultando la nostra Informativa sulla privacy e sui cookie.